Flag for Turkey Weather past 2 weeks in Gaziantep, Turkey

Now
48 °F

Clear.


Feels Like: 46 °F
Forecast: 44 / 61 °F
Wind: 6 mph from Southwest

Location: Gaziantep Airport

Current Time: Apr 20, 2015 at 4:12:29 AM

Latest Report: Apr 20, 2015 at 3:20 AM


Visibility: 10 mi

Pressure: 29.89 "Hg

Humidity: 87%

Dew point: 45 °F

Location of GaziantepLocation

Historic Weather in Gaziantep — Graph

°F

Gaziantep temperature yesterday

Maximum temperature yesterday: 72 °F (at 2:50 PM)
Minimum temperature yesterday: 46 °F (at 5:50 AM)
Average temperature yesterday: 58 °F

Past Weeks' High & Low Weather Summary

 TemperatureHumidityPressure
High72 °F (Apr 19, 2:50 PM)94% (Apr 19, 6:50 AM)30.18 "Hg (Apr 19, 6:50 AM)
Low34 °F (Apr 15, 3:20 AM)25% (Apr 17, 1:20 PM)29.65 "Hg (Apr 9, 9:20 AM)
Average54 °F61%29.98 "Hg
* Reported Apr 5 2:20 AM — Apr 20 2:50 AM, Gaziantep, Weather by CustomWeather, © 2015

Note: Actual official high and low records may vary slightly from our data, if they occured in-between our weather recording intervals... More about our weather records

Advertising

Gaziantep weather history for previous 24 hours

 ConditionsComfort  
Time TempWeatherWind HumidityBarometerVisibility
2:50 AM
Mon, Apr 20
48 °FClear.7 mph87%29.92 "Hg10 mi
2:20 AM48 °FClear.6 mph87%29.92 "Hg10 mi
1:50 AM50 °FClear.9 mph82%29.92 "Hg10 mi
1:20 AM50 °FClear.No wind82%29.95 "Hg10 mi
12:50 AM50 °FClear.7 mph82%29.95 "Hg10 mi
12:20 AM50 °FClear.No wind82%29.95 "Hg10 mi
11:50 PM
Sun, Apr 19
50 °FClear.7 mph82%29.95 "Hg10 mi
11:20 PM50 °FClear.5 mph82%29.95 "Hg10 mi
10:50 PM50 °FClear.5 mph82%29.98 "Hg10 mi
10:20 PM52 °FClear.7 mph82%29.98 "Hg10 mi
9:50 PM52 °FClear.8 mph82%29.98 "Hg10 mi
9:20 PM54 °FClear.8 mph77%29.95 "Hg10 mi
8:50 PM55 °FClear.10 mph72%29.95 "Hg10 mi
8:20 PM55 °FClear.7 mph72%29.95 "Hg10 mi
7:50 PM59 °FSunny.9 mph63%29.95 "Hg10 mi
7:20 PM61 °FSunny.8 mph59%29.95 "Hg10 mi
6:50 PM63 °FSunny.13 mph56%29.92 "Hg10 mi
6:20 PM64 °FSunny.13 mph60%29.92 "Hg10 mi
5:50 PM66 °FSunny.13 mph56%29.92 "Hg10 mi
5:20 PM68 °FSunny.14 mph53%29.95 "Hg10 mi
4:50 PM70 °FSunny.14 mph50%29.92 "Hg10 mi
4:20 PM70 °FSunny.15 mph43%29.95 "Hg10 mi
3:50 PM70 °FSunny.16 mph43%29.95 "Hg10 mi
3:20 PM72 °FSunny.14 mph50%29.95 "Hg10 mi
2:50 PM72 °FPassing clouds.10 mph50%29.95 "HgN/A
2:20 PM70 °FPassing clouds.13 mph50%29.95 "HgN/A
1:50 PM70 °FPassing clouds.14 mph50%29.98 "HgN/A
1:20 PM68 °FPassing clouds.13 mph53%29.98 "HgN/A
12:50 PM68 °FSunny.13 mph53%29.98 "Hg10 mi
12:20 PM66 °FSunny.13 mph56%29.98 "Hg10 mi
11:50 AM66 °FSunny.12 mph56%30.01 "Hg10 mi
11:20 AM64 °FPassing clouds.12 mph60%30.01 "HgN/A
10:50 AM64 °FSunny.10 mph60%30.01 "Hg10 mi
10:20 AM63 °FPassing clouds.5 mph59%30.01 "HgN/A
9:50 AM61 °FPassing clouds.5 mph68%30.04 "HgN/A
9:20 AM59 °FPassing clouds.7 mph72%30.01 "HgN/A
8:50 AM57 °FSunny.2 mph72%30.01 "Hg10 mi
8:20 AM55 °FPassing clouds.5 mph72%30.01 "HgN/A
7:50 AM54 °FSunny.2 mph82%30.01 "Hg10 mi
7:20 AM50 °FSunny.1 mph88%30.01 "Hg10 mi
6:50 AM48 °FClear.No wind94%30.01 "Hg10 mi
6:20 AM46 °FClear.6 mph93%30.01 "Hg10 mi
5:50 AM46 °FClear.7 mph93%29.98 "Hg10 mi
5:20 AM48 °FClear.7 mph87%29.98 "Hg10 mi
4:50 AM48 °FClear.7 mph87%30.01 "Hg10 mi
4:20 AM48 °FClear.5 mph87%30.01 "Hg10 mi
Weather by CustomWeather, © 2015

See weather overviewHow to use our weather pages